Weather History for CWEK - November, 2012

Change the Weather History Date:

Sunday, November 25, 2012

  Actual Average Record
Temperature  
Mean Temperature 43 °F -  
Max Temperature 45 °F - - ()
Min Temperature 41 °F - - ()
Degree Days  
Heating Degree Days 22    
Moisture  
Dew Point 40 °F    
Average Humidity 88    
Maximum Humidity 94    
Minimum Humidity 77    
Precipitation  
Precipitation 0.12 in - - ()
Sea Level Pressure  
Sea Level Pressure 30.22 in    
Wind  
Wind Speed 11 mph ()    
Max Wind Speed 22 mph    
Max Gust Speed 20 mph    
T = Trace of Precipitation, MM = Missing Value Source: Averaged Metar Reports

Daily Weather History Graph

Daily Weather History Graph

Search for Another Location

Airport or City:

Trip Planner

Search our weather history database for the weather conditions in past years. The results will help you decide how hot, cold, wet, or windy it might be!

Date:

Astronomy

Nov. 25, 2012 Rise Set
Actual Time 8:32 AM PST 4:26 PM PST
Civil Twilight 7:50 AM PST 5:09 PM PST
Nautical Twilight 7:05 AM PST 5:54 PM PST
Astronomical Twilight 6:22 AM PST 6:37 PM PST
Moon 3:03 PM PST (11/25) 5:34 AM PST (11/25)
Length of Visible Light 9h 18m
Length of Day
7h 54m
Waxing Gibbous, 93% of the Moon is Illuminated
Nov 25
Waxing Gibbous
Nov 28
Full
Dec 6
Last Quarter
Dec 13
New
Dec 19
First Quarter

Hourly Weather History & Observations

Time (PST) Temp. Windchill Dew Point Humidity Pressure Visibility Wind Dir Wind Speed Gust Speed Precip Events Conditions
12:00 AM 44.4 °F 39.5 °F 37.8 °F 77% 30.14 in - West 9.2 mph - N/A   Unknown
1:00 AM 44.6 °F 39.2 °F 37.9 °F 77% 30.16 in - WSW 10.4 mph - N/A   Unknown
2:00 AM 44.6 °F 40.2 °F 38.8 °F 80% 30.18 in - WSW 8.1 mph - N/A   Unknown
3:00 AM 44.2 °F 38.8 °F 40.1 °F 85% 30.20 in - SSW 10.4 mph - N/A   Unknown
4:00 AM 44 °F - 42 °F 89% 30.20 in - SSW 13.8 mph - -  
4:00 AM 44.2 °F 37.6 °F 41.7 °F 91% 30.20 in - SSW 13.8 mph - N/A   Unknown
5:00 AM 42.8 °F 40.1 °F 39.6 °F 88% 30.22 in - SSW 4.6 mph - 0.09 in   Unknown
6:00 AM 43.2 °F 39.0 °F 40.6 °F 91% 30.21 in - SW 6.9 mph - 0.01 in   Unknown
7:00 AM 43.7 °F 36.9 °F 40.6 °F 89% 30.21 in - SW 13.8 mph - N/A   Unknown
8:00 AM 43.5 °F 37.5 °F 39.7 °F 87% 30.22 in - SW 11.5 mph - N/A   Unknown
9:00 AM 43.9 °F 37.9 °F 41.0 °F 90% 30.23 in - SW 11.5 mph - N/A   Unknown
10:00 AM 43 °F - 40 °F 86% 30.24 in - South 17.3 mph - -  
10:00 AM 43.0 °F 35.1 °F 40.3 °F 90% 30.24 in - South 17.3 mph - N/A   Unknown
11:00 AM 42.3 °F 33.6 °F 40.5 °F 93% 30.24 in - SSE 19.6 mph - N/A   Unknown
12:00 PM 42.4 °F 33.5 °F 40.8 °F 94% 30.25 in - South 20.7 mph - 0.02 in   Unknown
1:00 PM 42.6 °F 34.9 °F 40.6 °F 93% 30.24 in - SSE 16.1 mph - N/A   Unknown
2:00 PM 42.6 °F 34.9 °F 41.0 °F 94% 30.24 in - SSE 16.1 mph - N/A   Unknown
3:00 PM 43.2 °F 36.6 °F 40.8 °F 91% 30.23 in - South 12.7 mph 19.6 mph 0.05 in   Unknown
4:00 PM 43 °F - 40 °F 85% 30.24 in - South 11.5 mph - -  
4:00 PM 42.6 °F 36.3 °F 40.1 °F 91% 30.24 in - South 11.5 mph - 0.02 in   Unknown
5:00 PM 43.9 °F 35.9 °F 40.1 °F 87% 30.23 in - South 18.4 mph - 0.02 in   Unknown
6:00 PM 42.8 °F 34.3 °F 40.1 °F 90% 30.22 in - South 19.6 mph - N/A   Unknown
7:00 PM 43.0 °F 34.5 °F 39.9 °F 89% 30.22 in - SSE 19.6 mph - 0.01 in   Unknown
8:00 PM 41.9 °F 35.0 °F 39.2 °F 90% 30.23 in - SSW 12.7 mph - 0.03 in   Unknown
9:00 PM 42.1 °F 32.8 °F 38.8 °F 88% 30.22 in - SSE 21.9 mph - 0.06 in   Unknown
10:00 PM 42 °F - 39 °F 86% 30.23 in - SSE 15.0 mph - -  
10:00 PM 42.1 °F 34.5 °F 39.2 °F 90% 30.23 in - SSE 15.0 mph - 0.02 in   Unknown
11:00 PM 42.3 °F 35.5 °F 39.4 °F 90% 30.23 in - SSE 12.7 mph - 0.01 in   Unknown